TimeEST,TemperatureF,Dew PointF,Humidity,Sea Level PressureIn,VisibilityMPH,Wind Direction,Wind SpeedMPH,Gust SpeedMPH,PrecipitationIn,Events,Conditions,WindDirDegrees,DateUTC
12:14 AM,19.4,15.8,86,30.16,10.0,North,8.1,-,N/A,,Mostly Cloudy,360,2012-12-27 05:14:00
12:35 AM,19.4,15.8,86,30.15,10.0,North,9.2,-,N/A,,Overcast,360,2012-12-27 05:35:00
12:55 AM,19.4,15.8,86,30.15,10.0,NNE,9.2,-,N/A,,Overcast,20,2012-12-27 05:55:00
1:14 AM,19.4,15.8,86,30.14,10.0,North,8.1,-,N/A,,Overcast,10,2012-12-27 06:14:00
1:35 AM,19.4,15.8,86,30.14,10.0,North,8.1,-,N/A,,Overcast,350,2012-12-27 06:35:00
1:54 AM,19.4,14.0,80,30.15,10.0,NNW,5.8,-,N/A,,Overcast,340,2012-12-27 06:54:00
2:14 AM,17.6,14.0,86,30.16,10.0,NNW,5.8,-,N/A,,Scattered Clouds,340,2012-12-27 07:14:00
2:35 AM,17.6,14.0,86,30.16,10.0,North,6.9,-,N/A,,Clear,350,2012-12-27 07:35:00
2:54 AM,19.4,15.8,86,30.16,10.0,North,8.1,-,N/A,,Clear,350,2012-12-27 07:54:00
3:15 AM,19.4,15.8,86,30.16,10.0,North,8.1,-,N/A,,Clear,350,2012-12-27 08:15:00
3:35 AM,19.4,15.8,86,30.16,10.0,North,6.9,-,N/A,,Scattered Clouds,360,2012-12-27 08:35:00
3:54 AM,19.4,15.8,86,30.16,10.0,North,8.1,-,N/A,,Mostly Cloudy,350,2012-12-27 08:54:00
4:15 AM,19.4,15.8,86,30.16,10.0,North,8.1,-,N/A,,Overcast,350,2012-12-27 09:15:00
4:54 AM,19.4,15.8,86,30.16,10.0,North,8.1,-,N/A,,Overcast,360,2012-12-27 09:54:00
5:15 AM,21.2,17.6,86,30.16,10.0,North,9.2,-,N/A,,Scattered Clouds,350,2012-12-27 10:15:00
5:34 AM,21.2,17.6,86,30.16,10.0,North,8.1,-,N/A,,Overcast,360,2012-12-27 10:34:00
5:55 AM,21.2,17.6,86,30.16,10.0,North,11.5,-,N/A,,Mostly Cloudy,350,2012-12-27 10:55:00
6:15 AM,21.2,17.6,86,30.15,10.0,North,13.8,20.7,N/A,,Scattered Clouds,360,2012-12-27 11:15:00
6:34 AM,23.0,17.6,80,30.15,10.0,North,9.2,-,N/A,,Mostly Cloudy,350,2012-12-27 11:34:00
6:55 AM,23.0,17.6,80,30.16,10.0,North,10.4,16.1,N/A,,Scattered Clouds,350,2012-12-27 11:55:00
7:15 AM,23.0,17.6,80,30.16,10.0,North,11.5,-,N/A,,Mostly Cloudy,350,2012-12-27 12:15:00
7:34 AM,24.8,17.6,74,30.17,10.0,North,12.7,19.6,N/A,,Overcast,360,2012-12-27 12:34:00
7:55 AM,24.8,17.6,74,30.17,10.0,North,11.5,-,N/A,,Overcast,350,2012-12-27 12:55:00
8:14 AM,24.8,17.6,74,30.17,10.0,North,10.4,-,N/A,,Overcast,350,2012-12-27 13:14:00
8:35 AM,24.8,17.6,74,30.17,10.0,North,13.8,18.4,N/A,,Overcast,350,2012-12-27 13:35:00
8:54 AM,24.8,17.6,74,30.17,10.0,North,10.4,-,N/A,,Overcast,350,2012-12-27 13:54:00
9:15 AM,24.8,17.6,74,30.17,10.0,North,16.1,23.0,N/A,,Overcast,350,2012-12-27 14:15:00
9:34 AM,23.0,17.6,80,30.17,10.0,North,16.1,24.2,N/A,,Mostly Cloudy,10,2012-12-27 14:34:00
9:55 AM,23.0,17.6,80,30.18,10.0,North,12.7,19.6,N/A,,Clear,10,2012-12-27 14:55:00
10:14 AM,24.8,17.6,74,30.18,10.0,North,15.0,-,N/A,,Scattered Clouds,360,2012-12-27 15:14:00
10:35 AM,24.8,17.6,74,30.18,10.0,North,12.7,18.4,N/A,,Scattered Clouds,10,2012-12-27 15:35:00
10:55 AM,26.6,17.6,69,30.18,10.0,North,12.7,-,N/A,,Mostly Cloudy,10,2012-12-27 15:55:00
11:35 AM,26.6,17.6,69,30.17,10.0,NNE,17.3,23.0,N/A,,Mostly Cloudy,20,2012-12-27 16:35:00
11:55 AM,26.6,19.4,74,30.17,10.0,NNW,12.7,21.9,N/A,,Overcast,340,2012-12-27 16:55:00
12:14 PM,26.6,17.6,69,30.16,10.0,North,16.1,-,N/A,,Overcast,360,2012-12-27 17:14:00
12:35 PM,26.6,17.6,69,30.16,10.0,NNW,13.8,19.6,N/A,,Overcast,340,2012-12-27 17:35:00
12:54 PM,26.6,17.6,69,30.15,10.0,North,13.8,19.6,N/A,,Overcast,350,2012-12-27 17:54:00
1:15 PM,26.6,17.6,69,30.15,10.0,North,12.7,17.3,N/A,,Mostly Cloudy,350,2012-12-27 18:15:00
1:34 PM,26.6,17.6,69,30.14,10.0,North,12.7,16.1,N/A,,Mostly Cloudy,360,2012-12-27 18:34:00
1:55 PM,26.6,17.6,69,30.14,10.0,North,13.8,-,N/A,,Mostly Cloudy,360,2012-12-27 18:55:00
2:15 PM,26.6,17.6,69,30.14,10.0,North,11.5,19.6,N/A,,Mostly Cloudy,350,2012-12-27 19:15:00
2:34 PM,26.6,17.6,69,30.14,10.0,North,10.4,-,N/A,,Mostly Cloudy,360,2012-12-27 19:34:00
2:55 PM,26.6,17.6,69,30.14,10.0,North,9.2,-,N/A,,Overcast,350,2012-12-27 19:55:00
3:15 PM,24.8,17.6,74,30.16,10.0,North,13.8,18.4,N/A,,Overcast,350,2012-12-27 20:15:00
3:34 PM,24.8,17.6,74,30.15,10.0,North,10.4,-,N/A,,Mostly Cloudy,360,2012-12-27 20:34:00
3:55 PM,24.8,17.6,74,30.16,10.0,North,11.5,17.3,N/A,,Mostly Cloudy,350,2012-12-27 20:55:00
4:14 PM,24.8,17.6,74,30.16,10.0,North,11.5,16.1,N/A,,Mostly Cloudy,360,2012-12-27 21:14:00
4:35 PM,24.8,17.6,74,30.16,10.0,North,8.1,-,N/A,,Mostly Cloudy,10,2012-12-27 21:35:00
4:55 PM,24.8,17.6,74,30.16,10.0,North,11.5,-,N/A,,Overcast,360,2012-12-27 21:55:00
5:14 PM,24.8,17.6,74,30.16,10.0,North,9.2,-,N/A,,Overcast,360,2012-12-27 22:14:00
5:35 PM,24.8,17.6,74,30.16,10.0,North,4.6,-,N/A,,Overcast,350,2012-12-27 22:35:00
5:55 PM,23.0,17.6,80,30.16,10.0,North,6.9,-,N/A,,Overcast,360,2012-12-27 22:55:00
6:14 PM,23.0,17.6,80,30.17,10.0,North,6.9,-,N/A,,Overcast,360,2012-12-27 23:14:00
6:35 PM,23.0,17.6,80,30.17,10.0,North,5.8,-,N/A,,Overcast,350,2012-12-27 23:35:00
6:54 PM,23.0,17.6,80,30.17,10.0,North,10.4,-,N/A,,Overcast,350,2012-12-27 23:54:00
7:35 PM,23.0,17.6,80,30.17,10.0,NNW,9.2,-,N/A,,Overcast,340,2012-12-28 00:35:00
7:54 PM,23.0,17.6,80,30.17,10.0,North,9.2,-,N/A,,Overcast,350,2012-12-28 00:54:00
8:15 PM,23.0,17.6,80,30.18,10.0,NNW,5.8,-,N/A,,Overcast,340,2012-12-28 01:15:00
8:35 PM,23.0,17.6,80,30.18,10.0,NNW,5.8,-,N/A,,Overcast,340,2012-12-28 01:35:00
8:54 PM,23.0,17.6,80,30.18,10.0,NNW,4.6,-,N/A,,Overcast,330,2012-12-28 01:54:00
9:15 PM,23.0,17.6,80,30.17,10.0,NNW,5.8,-,N/A,,Overcast,340,2012-12-28 02:15:00
9:34 PM,23.0,17.6,80,30.16,10.0,NNW,4.6,-,N/A,,Overcast,340,2012-12-28 02:34:00
9:55 PM,23.0,17.6,80,30.16,10.0,NW,4.6,-,N/A,,Overcast,310,2012-12-28 02:55:00
10:14 PM,23.0,17.6,80,30.16,10.0,NNW,4.6,-,N/A,,Overcast,330,2012-12-28 03:14:00
10:35 PM,23.0,17.6,80,30.16,10.0,WNW,3.5,-,N/A,,Overcast,300,2012-12-28 03:35:00
10:55 PM,21.2,17.6,86,30.15,10.0,Calm,Calm,-,N/A,,Overcast,0,2012-12-28 03:55:00
11:14 PM,21.2,15.8,80,30.14,10.0,Calm,Calm,-,N/A,,Scattered Clouds,0,2012-12-28 04:14:00
11:35 PM,21.2,15.8,80,30.14,10.0,Calm,Calm,-,N/A,,Scattered Clouds,0,2012-12-28 04:35:00
11:55 PM,21.2,15.8,80,30.14,10.0,Calm,Calm,-,N/A,,Scattered Clouds,0,2012-12-28 04:55:00